• En Estados Unidos
  • Lista de países
  • Para 7 días
  • Temperatura del agua
  • Mapa Satelital
  • El tiempo en el mapa
  • Informadores
  • user-avatar
    Iniciar sesión

    Tiempo cada hora Luanda

    Hoy, 20 Enero, Sábado

    Tiempo Temperatura Precipitaciones Viento Presión Humedad
    00:00 +27°C° 0 mm 2 mps 753 mmHg 80%
    01:00 +27°C° 0 mm 1 mps 753 mmHg 81%
    02:00 +27°C° 0,2 mm 1 mps 753 mmHg 83%
    03:00 +27°C° 0,2 mm 1 mps 752 mmHg 85%
    04:00 +26°C° 0,2 mm 1 mps 752 mmHg 87%
    05:00 +26°C° 0,4 mm 2 mps 752 mmHg 87%
    06:00 +26°C° 0,4 mm 2 mps 753 mmHg 88%
    07:00 +26°C° 0,4 mm 2 mps 753 mmHg 88%
    08:00 +27°C° 0,6 mm 2 mps 753 mmHg 82%
    09:00 +28°C° 0,6 mm 2 mps 753 mmHg 76%
    10:00 +30°C° 0,6 mm 2 mps 753 mmHg 71%
    11:00 +31°C° 0,2 mm 2 mps 753 mmHg 66%
    12:00 +32°C° 0,2 mm 2 mps 752 mmHg 61%
    13:00 +34°C° 0,2 mm 2 mps 752 mmHg 56%
    14:00 +34°C° 0 mm 3 mps 751 mmHg 55%
    15:00 +34°C° 0 mm 3 mps 751 mmHg 55%
    16:00 +34°C° 0 mm 4 mps 750 mmHg 54%
    17:00 +31°C° 0 mm 3 mps 751 mmHg 61%
    18:00 +30°C° 0 mm 3 mps 751 mmHg 67%
    19:00 +28°C° 0 mm 3 mps 751 mmHg 74%
    20:00 +28°C° 0 mm 2 mps 752 mmHg 76%
    21:00 +27°C° 0 mm 2 mps 753 mmHg 79%
    22:00 +27°C° 0 mm 1 mps 753 mmHg 82%
    23:00 +27°C° 0 mm 1 mps 753 mmHg 83%

    Mañana, 21 Enero, Domingo

    Tiempo Temperatura Precipitaciones Viento Presión Humedad
    00:00 +26°C° 0 mm 1 mps 753 mmHg 84%
    01:00 +24°C° 0 mm 0 mps 753 mmHg 85%
    02:00 +24°C° 0,3 mm 0 mps 753 mmHg 86%
    03:00 +24°C° 0,3 mm 0 mps 753 mmHg 87%
    04:00 +24°C° 0,3 mm 0 mps 752 mmHg 88%
    05:00 +26°C° 0,4 mm 1 mps 753 mmHg 88%
    06:00 +26°C° 0,4 mm 1 mps 753 mmHg 87%
    07:00 +26°C° 0,4 mm 2 mps 754 mmHg 87%
    08:00 +27°C° 0,1 mm 2 mps 754 mmHg 82%
    09:00 +28°C° 0,1 mm 2 mps 754 mmHg 76%
    10:00 +29°C° 0,1 mm 2 mps 754 mmHg 71%
    11:00 +30°C° 0 mm 2 mps 754 mmHg 66%
    12:00 +32°C° 0 mm 2 mps 753 mmHg 60%
    13:00 +34°C° 0 mm 2 mps 752 mmHg 55%
    14:00 +34°C° 0 mm 2 mps 752 mmHg 55%
    15:00 +34°C° 0 mm 3 mps 752 mmHg 55%
    16:00 +34°C° 0 mm 3 mps 751 mmHg 54%
    17:00 +31°C° 0 mm 3 mps 752 mmHg 61%
    18:00 +30°C° 0 mm 3 mps 752 mmHg 67%
    19:00 +28°C° 0 mm 3 mps 752 mmHg 74%
    20:00 +28°C° 0 mm 2 mps 753 mmHg 76%
    21:00 +28°C° 0 mm 2 mps 754 mmHg 79%
    22:00 +27°C° 0 mm 2 mps 754 mmHg 81%
    23:00 +27°C° 0,1 mm 2 mps 754 mmHg 82%

    Pasado mañana, 22 Enero, Lunes

    Tiempo Temperatura Precipitaciones Viento Presión Humedad
    00:00 +27°C° 0,1 mm 2 mps 754 mmHg 83%
    01:00 +27°C° 0,1 mm 2 mps 753 mmHg 84%
    02:00 +27°C° 0,4 mm 2 mps 753 mmHg 86%
    03:00 +26°C° 0,4 mm 2 mps 753 mmHg 88%
    04:00 +26°C° 0,4 mm 2 mps 752 mmHg 90%
    05:00 +26°C° 0,8 mm 2 mps 753 mmHg 89%
    06:00 +26°C° 0,8 mm 2 mps 753 mmHg 88%
    07:00 +26°C° 0,8 mm 2 mps 754 mmHg 88%
    08:00 +28°C° 0,2 mm 1 mps 754 mmHg 79%
    09:00 +30°C° 0,2 mm 1 mps 754 mmHg 70%
    10:00 +32°C° 0,2 mm 1 mps 755 mmHg 62%
    11:00 +33°C° 0 mm 1 mps 754 mmHg 57%
    12:00 +35°C° 0 mm 2 mps 753 mmHg 52%
    13:00 +36°C° 0 mm 3 mps 752 mmHg 47%
    14:00 +35°C° 0 mm 3 mps 752 mmHg 48%
    15:00 +35°C° 0 mm 4 mps 751 mmHg 49%
    16:00 +34°C° 0 mm 4 mps 751 mmHg 50%
    17:00 +33°C° 0 mm 4 mps 751 mmHg 57%
    18:00 +30°C° 0 mm 3 mps 752 mmHg 65%
    19:00 +29°C° 0 mm 3 mps 752 mmHg 72%
    20:00 +28°C° 0 mm 3 mps 753 mmHg 75%
    21:00 +28°C° 0 mm 2 mps 753 mmHg 78%
    22:00 +28°C° 0 mm 2 mps 754 mmHg 81%
    23:00 +27°C° 0 mm 2 mps 754 mmHg 82%

    23 Enero, Martes

    Tiempo Temperatura Precipitaciones Viento Presión Humedad
    00:00 +27°C° 0 mm 2 mps 753 mmHg 83%
    01:00 +27°C° 0 mm 2 mps 753 mmHg 84%
    02:00 +27°C° 0 mm 2 mps 752 mmHg 85%
    03:00 +26°C° 0 mm 2 mps 752 mmHg 86%
    04:00 +26°C° 0 mm 2 mps 752 mmHg 86%
    05:00 +26°C° 0 mm 2 mps 752 mmHg 86%
    06:00 +26°C° 0 mm 2 mps 753 mmHg 86%
    07:00 +26°C° 0 mm 2 mps 753 mmHg 86%
    08:00 +28°C° 0 mm 1 mps 753 mmHg 78%
    09:00 +30°C° 0 mm 1 mps 753 mmHg 70%
    10:00 +31°C° 0 mm 1 mps 754 mmHg 62%
    11:00 +32°C° 0 mm 1 mps 753 mmHg 57%
    12:00 +33°C° 0 mm 1 mps 752 mmHg 52%
    13:00 +35°C° 0 mm 2 mps 751 mmHg 47%
    14:00 +35°C° 0 mm 2 mps 751 mmHg 49%
    15:00 +34°C° 0 mm 3 mps 750 mmHg 51%
    16:00 +34°C° 0 mm 4 mps 749 mmHg 53%
    17:00 +31°C° 0 mm 3 mps 750 mmHg 59%
    18:00 +30°C° 0 mm 3 mps 750 mmHg 66%
    19:00 +28°C° 0 mm 3 mps 751 mmHg 72%
    20:00 +28°C° 0 mm 3 mps 751 mmHg 74%
    21:00 +28°C° 0 mm 3 mps 752 mmHg 76%
    22:00 +28°C° 0 mm 2 mps 753 mmHg 78%
    23:00 +27°C° 0 mm 2 mps 752 mmHg 80%

    24 Enero, Miércoles

    Tiempo Temperatura Precipitaciones Viento Presión Humedad
    00:00 +27°C° 0 mm 2 mps 752 mmHg 81%
    01:00 +27°C° 0 mm 2 mps 752 mmHg 82%
    02:00 +27°C° 0 mm 2 mps 752 mmHg 83%
    03:00 +26°C° 0 mm 2 mps 752 mmHg 85%
    04:00 +26°C° 0 mm 2 mps 751 mmHg 86%
    05:00 +26°C° 0 mm 2 mps 752 mmHg 86%
    06:00 +26°C° 0 mm 2 mps 752 mmHg 85%
    07:00 +27°C° 0 mm 2 mps 753 mmHg 84%
    08:00 +28°C° 0 mm 2 mps 753 mmHg 75%
    09:00 +30°C° 0 mm 2 mps 753 mmHg 66%
    10:00 +32°C° 0 mm 2 mps 753 mmHg 57%
    11:00 +34°C° 0 mm 2 mps 752 mmHg 55%
    12:00 +34°C° 0 mm 2 mps 752 mmHg 53%
    13:00 +35°C° 0 mm 2 mps 751 mmHg 50%
    14:00 +35°C° 0 mm 3 mps 751 mmHg 51%
    15:00 +34°C° 0 mm 3 mps 750 mmHg 52%
    16:00 +34°C° 0 mm 4 mps 750 mmHg 54%
    17:00 +33°C° 0 mm 4 mps 750 mmHg 60%
    18:00 +30°C° 0 mm 3 mps 751 mmHg 66%
    19:00 +29°C° 0 mm 3 mps 751 mmHg 73%
    20:00 +29°C° 0 mm 3 mps 751 mmHg 75%
    21:00 +28°C° 0 mm 3 mps 752 mmHg 77%
    22:00 +28°C° 0 mm 3 mps 752 mmHg 80%
    23:00 +27°C° 0 mm 3 mps 752 mmHg 80%

    25 Enero, Jueves

    Tiempo Temperatura Precipitaciones Viento Presión Humedad
    00:00 +27°C° 0 mm 3 mps 752 mmHg 81%
    01:00 +27°C° 0 mm 4 mps 751 mmHg 82%
    02:00 +27°C° 0 mm 3 mps 751 mmHg 82%
    03:00 +26°C° 0 mm 3 mps 751 mmHg 83%
    04:00 +26°C° 0 mm 3 mps 751 mmHg 83%
    05:00 +26°C° 0 mm 3 mps 752 mmHg 83%
    06:00 +26°C° 0 mm 2 mps 752 mmHg 82%
    07:00 +26°C° 0 mm 2 mps 752 mmHg 81%
    08:00 +28°C° 0 mm 2 mps 753 mmHg 73%
    09:00 +30°C° 0 mm 2 mps 753 mmHg 64%
    10:00 +32°C° 0 mm 2 mps 753 mmHg 55%
    11:00 +34°C° 0 mm 2 mps 752 mmHg 51%
    12:00 +35°C° 0 mm 3 mps 752 mmHg 48%
    13:00 +36°C° 0 mm 3 mps 751 mmHg 44%
    14:00 +36°C° 0 mm 4 mps 751 mmHg 47%
    15:00 +35°C° 0 mm 5 mps 750 mmHg 49%
    16:00 +35°C° 0 mm 5 mps 750 mmHg 52%
    17:00 +33°C° 0 mm 5 mps 750 mmHg 59%
    18:00 +32°C° 0 mm 5 mps 751 mmHg 65%
    19:00 +29°C° 0 mm 5 mps 751 mmHg 72%
    20:00 +29°C° 0 mm 5 mps 752 mmHg 75%
    21:00 +28°C° 0 mm 4 mps 752 mmHg 77%
    22:00 +27°C° 0 mm 4 mps 753 mmHg 80%
    23:00 +27°C° 0 mm 3 mps 752 mmHg 82%
    Mostrar más